OBJECT X, 69001

Orbit data source: Space-Track

You're viewing an Uncataloged Satellite

Recently launched and/or uncataloged satellites may have evolving metadata. Metadata may include but not limited to: Owner, Maufacturer, Bus, Motor, and Mission.

OBJECT X, 69001 is a satellite in SSO that was launched on Sun, 03 May 2026 UTC launched from the Air Force Western Test Range (AFWTR). Unknown objects in Earth's orbit typically refer to objects detected orbiting the Earth but have not yet been identified or cataloged. These objects could be anything from previously untracked satellites, spent rocket stages, debris from satellite collisions, or even natural meteoroids temporarily captured by Earth's gravity.

Loading next visibility...
Identifier
69001, 2026-100X
Orbit
SSO
Country
Flag of TBDTBD
Related business
None
Manufacturer
Unknown
Mission
Operational spacecraft
Bus & Motor
Unknown
Mass
Unknown
Launch date (UTC)
2026-05-03 (1 week ago)
Launch vehicle
Unknown
Launch site
Air Force Western Test Range (AFWTR)
Object type
Unknown
Shape & HBR
Unknown
Radar Cross Section
RCS unknown

Expand to show TLE details & history
Last TLE update: 7 hours ago

TLE from 7 hours ago
0 OBJECT X
1 69001U 26100X   26130.16668980  .00040741  00000-0  40857-2 0  9993
2 69001  97.6934  27.3323 0001209 102.3260 203.3442 14.91183270  1300
Epoch: 2026-05-10T04:00Z
TLE epoch observation values (Epoch: 2026-05-10T04:00:01.998Z)
Latitude
-53.86417°
Longitude
109.95338°
Altitude
615.956 km
Speed
7.549 km/s
True Right ascension
02h 31m 44s
True Declination
-53° 41' 49"
Sunlit
Object was in daylight at epoch
Visualization orbit readout
Latitude
Unknown
Longitude
Unknown
Altitude
Unknown
Speed
Unknown
Apparent Right ascension
Unknown
Apparent Declination
Unknown
Sunlit
N/A
Visualization observer readout
Local Sidereal Time
18:58:47
Azimuth
Unknown
Elevation
Unknown
Doppler factor
Unknown
Orbital elements
Apogee altitude
592.104 km
Perigee altitude
590.419 km
Semi-major axis
6,969.399 km
Eccentricity
0.00012
Inclination
97.6934°
RAAN
27.3323°
Arg. of periapsis
102.326°
True anomaly
203.33871°
Mean anomaly
203.3442°
Eccentric anomaly
203.34146°
Mean motion
3.73036 °/min
Orbital period
96.51 mins
BSTAR
0.0040857
Loading maneuver chart data...
Computing Atmospheric mass density...
Loading historical data...
Loading historical data...
Loading historical data...
Loading historical data...
Loading historical data...
Loading historical data...
Loading historical data...

Documentation

Showing up to 5 results
|